User: anonymous   Login
Location: Unspecified
(0.0000°N, 0.0000°E)
Time: 18:58:09
(UTC+00:00)
Language:

UNISAT 2 - Orbit

View from above orbital plane
View from above orbital plane
View from above satellite
View from above satellite

Ground track
Ground track

The orbit data is extracted from the following two-line orbital elements,

1 27608U 02058D   17084.79472181 +.00000057 +00000-0 +27316-4 0  9992
2 27608 064.5555 308.2638 0016173 123.4104 236.8549 14.77784227768229
Epoch (UTC): 25 March 2017 19:04:23
Eccentricity: 0.0016173
inclination: 64.5555°
perigee height: 625 km
apogee height: 647 km
right ascension of ascending node: 308.2638°
argument of perigee: 123.4104°
revolutions per day: 14.77784227
mean anomaly at epoch: 236.8549°
orbit number at epoch: 76822

The dashed part of the orbit path shows where the satellite is in the earth's shadow,  

DLR